EW8711 Weather Reports


time (UTC)temp
F
wind
direction
speed
knots
gust
knots
rain 1hr
in
rain 24hr
in
rain mn
in
humidity
%
barometer
mb
20210414104519 43 236 0.0 0.0 0.00 0.00 0.00 97 1019.6
20210414103519 44 239 0.0 0.0 0.00 0.00 0.00 97 1019.5
20210414102824 44 239 0.0 0.0 0.00 0.00 0.00 97 1019.1
20210414101450 44 242 0.0 0.0 0.00 0.00 0.00 97 1019.1
20210414100444 44 242 0.0 0.0 0.00 0.00 0.00 96 1018.9
20210414095820 44 242 0.0 0.0 0.00 0.00 0.00 96 1018.6
20210414094433 44 242 0.0 0.0 0.00 0.00 0.00 96 1018.6
20210414093428 44 242 0.0 0.0 0.00 0.00 0.00 96 1018.8
20210414092756 44 242 0.0 0.0 0.00 0.00 0.00 95 1018.3
20210414091419 44 242 0.0 0.0 0.00 0.00 0.00 95 1018.5
20210414090416 44 242 0.0 0.0 0.00 0.00 0.00 95 1018.6
20210414085754 44 242 0.0 0.0 0.00 0.00 0.00 94 1018.6
20210414084418 45 242 0.0 0.0 0.00 0.00 0.00 94 1018.7
20210414083358 45 239 0.0 0.0 0.00 0.00 0.00 94 1018.6
20210414082659 45 237 0.0 0.0 0.00 0.00 0.00 94 1018.6
20210414082030 45 236 0.0 0.0 0.00 0.00 0.00 94 1018.8
20210414080343 45 240 0.0 0.0 0.00 0.00 0.00 94 1018.7
20210414075717 45 240 0.0 0.0 0.00 0.00 0.00 94 1018.7
20210414074333 44 250 0.0 0.0 0.00 0.00 0.00 94 1019.0
20210414073331 44 241 0.0 0.0 0.00 0.00 0.00 93 1018.7
20210414072758 44 240 0.0 0.0 0.00 0.00 0.00 93 1018.8
20210414071323 44 240 0.0 0.0 0.00 0.00 0.00 93 1018.9
20210414070314 44 240 0.0 0.0 0.00 0.00 0.00 93 1019.0
20210414065830 44 240 0.0 0.0 0.00 0.00 0.00 93 1018.8
20210414064303 45 240 0.0 0.0 0.00 0.00 0.00 93 1018.8
20210414063258 44 240 0.0 0.0 0.00 0.00 0.00 93 1018.9
20210414062541 44 231 0.0 0.0 0.00 0.00 0.00 93 1019.0
20210414061249 44 242 0.0 0.0 0.00 0.00 0.00 92 1019.2
20210414060356 45 237 0.0 0.0 0.00 0.00 0.00 92 1019.0
20210414055722 45 232 0.0 0.0 0.00 0.00 0.00 92 1018.8
20210414054237 45 232 0.0 0.0 0.00 0.00 0.00 92 1019.1
20210414053236 45 229 0.0 0.0 0.00 0.00 0.00 91 1019.1
20210414052740 45 229 0.0 0.0 0.00 0.00 0.00 91 1018.9
20210414051228 46 229 0.0 0.0 0.00 0.00 0.00 91 1019.1
20210414050342 46 232 0.0 0.0 0.00 0.00 0.00 90 1019.0
20210414045922 46 243 0.0 0.0 0.00 0.00 0.00 90 1019.4
20210414044148 46 239 0.0 0.9 0.00 0.00 0.00 90 1019.2
20210414043138 46 238 0.0 0.9 0.00 0.01 0.00 89 1019.3
20210414042601 46 236 0.0 2.6 0.00 0.01 0.00 89 1019.2
20210414041136 47 234 0.9 0.9 0.00 0.01 0.00 89 1019.3
20210414040355 46 218 0.0 0.0 0.00 0.02 0.00 88 1019.0
20210414035619 47 229 0.0 0.0 0.00 0.02 0.02 87 1019.0
20210414034116 47 224 0.0 0.9 0.00 0.02 0.02 86 1019.1
20210414033420 47 209 0.0 0.9 0.00 0.02 0.02 86 1019.4
20210414032916 47 232 0.0 0.0 0.00 0.02 0.02 86 1019.3
20210414031059 47 226 0.0 0.9 0.00 0.02 0.02 85 1019.4
20210414030137 47 234 0.0 2.6 0.00 0.02 0.02 85 1019.3
20210414025554 47 225 0.0 0.9 0.00 0.02 0.02 84 1019.4
20210414024045 47 226 0.0 0.9 0.00 0.02 0.02 84 1019.2
20210414023135 48 227 0.0 0.9 0.00 0.02 0.02 83 1019.2
20210414022541 49 236 0.9 2.6 0.00 0.02 0.02 82 1019.1
20210414021049 49 223 0.0 0.0 0.00 0.02 0.02 81 1019.1
20210414015443 50 221 0.9 0.9 0.00 0.02 0.02 80 1019.2
20210414014028 51 227 0.0 2.6 0.00 0.02 0.02 78 1019.2
20210414012134 51 222 0.9 2.6 0.00 0.02 0.02 79 1018.9
20210414010956 52 223 0.0 2.6 0.00 0.02 0.02 77 1018.7
20210414005648 53 236 0.0 0.0 0.00 0.02 0.02 65 1018.8
20210414003942 53 236 0.0 0.0 0.00 0.02 0.02 62 1018.3
20210414002108 54 236 0.0 0.0 0.00 0.02 0.02 62 1018.4
20210414000927 55 236 0.0 0.0 0.00 0.02 0.02 62 1018.3
20210413235450 57 236 0.0 0.0 0.00 0.02 0.02 55 1018.2
20210413233931 58 236 0.0 0.0 0.00 0.02 0.02 50 1017.9
20210413232121 60 236 0.0 0.0 0.00 0.02 0.02 47 1017.9
20210413230857 60 237 0.0 0.0 0.00 0.02 0.02 47 1017.7
20210413230212 61 236 0.0 0.0 0.00 0.02 0.02 46 1017.7
20210413225355 61 234 0.0 0.0 0.00 0.02 0.02 47 1017.7
20210413223852 61 233 0.0 0.9 0.00 0.02 0.02 46 1017.5
20210413223043 62 222 0.0 0.0 0.00 0.02 0.02 46 1017.5
20210413222037 62 214 0.0 0.9 0.00 0.02 0.02 45 1017.5
20210413220829 63 182 2.6 3.5 0.00 0.02 0.02 41 1017.4
20210413220200 63 293 0.0 2.6 0.00 0.02 0.02 44 1017.6
20210413215037 63 210 0.9 2.6 0.00 0.02 0.02 41 1017.6
20210413213820 63 241 2.6 3.5 0.00 0.02 0.02 42 1017.4
20210413212949 65 126 0.9 3.5 0.00 0.02 0.02 41 1017.4
20210413211859 64 249 0.0 5.2 0.00 0.02 0.02 40 1017.6
20210413210758 66 227 0.0 2.6 0.00 0.02 0.02 39 1017.5
20210413205905 64 281 0.0 3.5 0.00 0.02 0.02 41 1017.7
20210413204821 63 300 1.7 3.5 0.00 0.02 0.02 41 1017.7
20210413203857 65 235 3.5 5.2 0.00 0.02 0.02 40 1017.9
20210413203036 64 18 2.6 7.0 0.00 0.02 0.02 41 1017.8
20210413201820 65 202 2.6 3.5 0.00 0.02 0.02 39 1017.7
20210413200732 64 265 5.2 7.8 0.00 0.02 0.02 40 1018.0
20210413200118 64 244 0.9 7.0 0.00 0.02 0.02 40 1017.8
20210413194716 64 227 1.7 3.5 0.00 0.02 0.02 41 1017.7
20210413193710 64 247 0.0 7.8 0.00 0.02 0.02 44 1017.9
20210413193043 64 251 0.0 3.5 0.00 0.02 0.02 43 1017.9
20210413191732 63 263 0.0 5.2 0.00 0.02 0.02 43 1017.7
20210413190714 65 231 0.0 3.5 0.00 0.02 0.02 42 1018.1
20210413185938 62 269 0.9 5.2 0.00 0.02 0.02 45 1018.2
20210413184645 62 213 0.9 5.2 0.00 0.02 0.02 45 1018.1
20210413183630 63 226 0.0 5.2 0.00 0.02 0.02 47 1018.4
20210413182916 62 319 0.9 5.2 0.00 0.02 0.02 45 1018.3
20210413181624 60 274 1.7 7.0 0.00 0.02 0.02 48 1018.5
20210413180621 61 247 3.5 5.2 0.00 0.02 0.02 45 1018.6
20210413175839 60 318 0.9 7.8 0.00 0.02 0.02 44 1018.7
20210413174615 61 127 0.0 7.8 0.00 0.02 0.02 48 1018.4
20210413173601 60 24 3.5 7.0 0.00 0.02 0.02 49 1018.5
20210413172926 59 177 1.7 7.8 0.00 0.02 0.02 47 1018.6
20210413171556 59 349 2.6 7.0 0.00 0.02 0.02 50 1018.7
20210413170546 58 342 0.9 5.2 0.00 0.02 0.02 52 1018.7
20210413165918 58 235 0.9 5.2 0.00 0.02 0.02 54 1018.5
20210413164545 57 316 0.9 7.0 0.00 0.02 0.02 55 1018.8
20210413163532 57 356 0.9 7.0 0.00 0.02 0.02 58 1019.1
20210413163027 57 230 0.9 3.5 0.00 0.02 0.02 56 1018.9
20210413161523 56 69 0.9 3.5 0.00 0.02 0.02 60 1019.0
20210413160531 54 41 0.9 5.2 0.00 0.02 0.02 65 1019.3
20210413155954 55 156 0.9 5.2 0.00 0.02 0.02 63 1019.3
20210413154521 56 263 2.6 5.2 0.00 0.02 0.02 65 1019.2
20210413153506 54 262 1.7 3.5 0.00 0.02 0.02 68 1019.5
20210413152924 53 20 0.9 3.5 0.00 0.02 0.02 73 1019.3
20210413151452 52 292 2.6 5.2 0.00 0.02 0.02 74 1019.5
20210413150235 51 256 0.0 3.5 0.00 0.02 0.02 78 1019.3
20210413144435 51 241 0.9 2.6 0.00 0.02 0.02 78 1019.2
20210413143431 50 233 0.0 5.2 0.00 0.02 0.02 80 1019.3
20210413142930 50 27 0.9 3.5 0.00 0.02 0.02 82 1019.3
20210413141421 50 357 1.7 3.5 0.00 0.02 0.02 83 1019.1
20210413140416 49 67 1.7 3.5 0.00 0.02 0.02 82 1019.0
20210413135958 49 40 1.7 3.5 0.00 0.02 0.02 85 1018.8
20210413134415 50 0 0.0 3.5 0.00 0.02 0.02 86 1018.8
20210413133350 49 214 0.0 2.6 0.00 0.02 0.02 90 1018.6
20210413132908 49 303 0.9 2.6 0.00 0.02 0.02 92 1018.5
20210413131340 47 270 0.0 3.5 0.00 0.02 0.02 96 1018.3
20210413130345 47 302 0.0 2.6 0.00 0.02 0.02 97 1018.4
20210413125958 46 32 2.6 2.6 0.00 0.02 0.02 98 1018.3
20210413124332 46 273 0.0 0.9 0.00 0.02 0.02 98 1018.1
20210413123322 46 285 0.9 0.9 0.00 0.02 0.02 98 1018.2
20210413123107 46 228 0.0 0.0 0.00 0.02 0.02 98 1017.9
20210413121312 46 230 0.0 0.0 0.00 0.02 0.02 98 1017.8
20210413120304 46 247 0.0 0.0 0.00 0.02 0.02 98 1017.7
20210413114257 45 251 0.0 0.0 0.00 0.02 0.02 98 1017.6
20210413113255 45 255 0.0 0.0 0.00 0.02 0.02 98 1017.4
20210413113048 45 240 0.0 0.9 0.00 0.02 0.02 98 1017.4
20210413111243 45 246 0.0 0.0 0.00 0.02 0.02 98 1017.2
20210413110023 45 241 0.0 0.0 0.00 0.02 0.02 98 1017.1